Terminal Aerodrome Forecast
Issued by NWS

Home | Current Version | Previous Version | Graphics & Text | Print | Product List | Glossary On
Versions: 1 2 3 4 5 6 7 8 9 10 11 12 13 14 15
047
FTUS43 KMPX 100951 AAA
TAFAXN
TAF AMD
KAXN 100951Z 1010/1106 03003KT P6SM SCT060 BKN100
     FM101300 09004KT P6SM BKN050
      TEMPO 1014/1017 6SM -SN OVC035
     FM110000 33004KT P6SM BKN040
     FM110400 VRB02KT P6SM BKN100=

USA.gov is the U.S. government's official web portal to all federal, state and local government web resources and services.